This is the latest recevied weather packets stored in our database for station/object G4KVI. If no packets are shown the sender has not sent any weather packets the latest 10 day(s).
| Time | Temp. | Humidity | Pressure | Rain* | Wind** | Luminosity | Snow |
|---|---|---|---|---|---|---|---|
| 1787732403 | 18.89° C | 77% | 1014.6 hPa | 0 mm | - | 160 W/m² | - |
| 1787732104 | 18.33° C | 77% | 1014.5 hPa | 0 mm | - | 185 W/m² | - |
| 1787731804 | 18.33° C | 78% | 1014.7 hPa | 0 mm | - | 174 W/m² | - |
| 1787731503 | 18.33° C | 77% | 1014.8 hPa | 0 mm | - | 139 W/m² | - |
| 1787731203 | 18.33° C | 77% | 1014.7 hPa | 0 mm | - | 149 W/m² | - |
| 1787730903 | 18.33° C | 77% | 1014.5 hPa | 0 mm | - | 131 W/m² | - |
| 1787730603 | 18.33° C | 77% | 1014.7 hPa | 0 mm | - | 130 W/m² | - |
| 1787730303 | 17.78° C | 78% | 1014.6 hPa | 0 mm | - | 143 W/m² | - |
| 1787730003 | 17.78° C | 78% | 1014.6 hPa | 0 mm | - | 133 W/m² | - |
| 1787729703 | 17.78° C | 78% | 1014.5 hPa | 0 mm | - | 126 W/m² | - |
| 1787729404 | 17.78° C | 78% | 1014.3 hPa | 0 mm | - | 114 W/m² | - |
| 1787729103 | 17.78° C | 78% | 1014.7 hPa | 0 mm | - | 122 W/m² | - |
| 1787728804 | 17.78° C | 79% | 1014.3 hPa | 0 mm | - | 126 W/m² | - |
| 1787728503 | 17.22° C | 79% | 1014.5 hPa | 0 mm | - | 108 W/m² | - |
| 1787728204 | 17.22° C | 79% | 1014.6 hPa | 0 mm | - | 88 W/m² | - |
| 1787727903 | 17.22° C | 79% | 1014.4 hPa | 0 mm | - | 84 W/m² | - |
| 1787727603 | 17.22° C | 79% | 1014.3 hPa | 0 mm | - | 89 W/m² | - |
| 1787727303 | 17.22° C | 80% | 1014.4 hPa | 0 mm | - | 87 W/m² | - |
| 1787727003 | 16.67° C | 80% | 1014.4 hPa | 0 mm | - | 64 W/m² | - |
| 1787726704 | 16.67° C | 80% | 1014.2 hPa | 0 mm | - | 35 W/m² | - |
| 1787726403 | 16.67° C | 80% | 1014.4 hPa | 0 mm | - | 34 W/m² | - |
| 1787726104 | 16.67° C | 80% | 1014.2 hPa | 0 mm | - | 27 W/m² | - |
| 1787725803 | 16.67° C | 79% | 1014.4 hPa | 0 mm | - | 33 W/m² | - |
| 1787725503 | 16.67° C | 79% | 1014.4 hPa | 0 mm | - | 44 W/m² | - |
| 1787725203 | 16.67° C | 79% | 1014.3 hPa | 0 mm | - | 34 W/m² | - |
* Rain latest hour (hover to see other rain measurements)
** Current wind speed in m/s (hover to see current wind gust speed)